Location: Asheville, NC
(35.6000°N, 82.5500°W)
Time: 14:37:40
(UTC-04:00)

KAITUO 1B - Pass Details

Date: 07 January 2018
Orbit: 500 x 520 km, 97.5° (Epoch: 20 April)

Event Time Altitude Azimuth Distance (km) Brightness Sun altitude
Rises 05:42:49 0° 37° (NE) 2,616 ? -23.3°
Reaches altitude 10° 05:46:09 10° 70° (ENE) 1,719 ? -22.7°
Maximum altitude 05:47:36 12° 93° (E) 1,596 ? -22.4°
Drops below altitude 10° 05:49:02 10° 116° (ESE) 1,709 ? -22.1°
Sets 05:52:18 0° 148° (SSE) 2,582 ? -21.4°
